EW7744 Weather Reports


time (UTC)temp
F
wind
direction
speed
knots
gust
knots
rain 1hr
in
rain 24hr
in
rain mn
in
humidity
%
barometer
mb
20260502151342 60 261 7.8 13.0 0.00 0.00 0.00 39 1013.4
20260502150834 60 261 7.0 11.3 0.00 0.00 0.00 39 1013.4
20260502150323 59 261 7.0 12.2 0.00 0.00 0.00 39 1013.4
20260502140113 54 261 7.8 12.2 0.00 0.00 0.00 43 1013.6
20260502130417 47 0 3.5 7.0 0.00 0.00 0.00 56 1012.8
20260502123316 45 0 2.6 5.2 0.00 0.00 0.00 56 1012.9
20260502122807 45 0 3.5 7.8 0.00 0.00 0.00 56 1012.9
20260502122256 45 0 4.3 7.8 0.00 0.00 0.00 56 1012.9
20260502121747 44 259 4.3 7.8 0.00 0.00 0.00 57 1012.9
20260502121243 44 260 3.5 7.8 0.00 0.00 0.00 57 1012.9
20260502120735 44 259 3.5 7.0 0.00 0.00 0.00 57 1012.9
20260502120224 44 259 4.3 7.8 0.00 0.00 0.00 57 1012.9
20260502115726 44 259 5.2 8.7 0.00 0.00 0.00 57 1012.9
20260502115216 44 0 6.1 11.3 0.00 0.00 0.00 57 1013.1
20260502114705 44 259 7.0 12.2 0.00 0.00 0.00 57 1013.1
20260502114154 44 259 7.0 12.2 0.00 0.00 0.00 57 1013.1
20260502113645 44 0 7.0 10.4 0.00 0.00 0.00 57 1013.2
20260502113636 44 260 6.1 10.4 0.00 0.00 0.00 57 1013.3
20260502113109 44 0 6.1 8.7 0.00 0.00 0.00 56 1013.5
20260502112723 44 259 6.1 8.7 0.00 0.00 0.00 56 1013.5
20260502112713 44 259 6.1 9.6 0.00 0.00 0.00 56 1013.4
20260502111054 44 0 6.1 10.4 0.00 0.00 0.00 55 1013.5
20260502110547 44 259 6.1 9.6 0.00 0.00 0.00 55 1013.6
20260502110530 45 259 5.2 7.8 0.00 0.00 0.00 54 1013.7
20260502110134 44 259 6.1 8.7 0.00 0.00 0.00 54 1013.7
20260502105017 45 0 4.3 7.0 0.00 0.00 0.00 53 1013.9
20260502104507 45 0 4.3 7.0 0.00 0.00 0.00 53 1013.9
20260502103956 45 0 4.3 7.8 0.00 0.00 0.00 53 1013.9
20260502103447 45 0 4.3 7.8 0.00 0.00 0.00 53 1013.9
20260502102928 45 0 4.3 10.4 0.00 0.00 0.00 53 1013.8
20260502102425 45 260 5.2 10.4 0.00 0.00 0.00 52 1013.9
20260502101924 45 260 7.0 12.2 0.00 0.00 0.00 52 1013.9
20260502101426 45 260 7.0 12.2 0.00 0.00 0.00 52 1013.8
20260502101421 45 260 7.0 10.4 0.00 0.00 0.00 52 1013.8
20260502100420 45 260 6.1 10.4 0.00 0.00 0.00 52 1013.8
20260502091224 47 259 8.7 13.9 0.00 0.00 0.00 50 1014.5
20260502090712 47 0 9.6 18.2 0.00 0.00 0.00 49 1014.5
20260502090704 47 259 10.4 18.2 0.00 0.00 0.00 49 1014.3
20260502071351 49 260 10.4 18.2 0.00 0.00 0.00 44 1015.3
20260502070847 49 260 10.4 17.4 0.00 0.00 0.00 44 1015.3
20260502070337 49 260 10.4 17.4 0.00 0.00 0.00 43 1015.5
20260502065833 49 260 10.4 18.2 0.00 0.00 0.00 43 1015.5
20260502065330 49 260 10.4 20.9 0.00 0.00 0.00 43 1015.6
20260502064828 49 260 10.4 20.9 0.00 0.00 0.00 43 1015.6
20260502064323 49 260 9.6 18.2 0.00 0.00 0.00 43 1015.7
20260502064317 49 260 8.7 15.6 0.00 0.00 0.00 44 1015.9
20260502063309 49 260 8.7 15.6 0.00 0.00 0.00 44 1015.9
20260502062801 49 260 7.8 12.2 0.00 0.00 0.00 44 1015.9
20260502062246 49 260 7.8 13.9 0.00 0.00 0.00 44 1015.9
20260502061743 49 260 7.8 13.9 0.00 0.00 0.00 43 1016.0
20260502061239 49 260 8.7 12.2 0.00 0.00 0.00 43 1016.0
20260502061233 49 260 7.8 12.2 0.00 0.00 0.00 42 1016.1
20260502060230 49 260 7.0 10.4 0.00 0.00 0.00 42 1016.1
20260502055722 50 260 7.0 10.4 0.00 0.00 0.00 42 1016.2
20260502055205 50 260 6.1 10.4 0.00 0.00 0.00 42 1016.2
20260502054654 50 260 6.1 10.4 0.00 0.00 0.00 41 1016.2
20260502054145 50 260 6.1 10.4 0.00 0.00 0.00 41 1016.3
20260502053634 49 260 5.2 8.7 0.00 0.00 0.00 42 1016.3
20260502053626 49 260 4.3 7.8 0.00 0.00 0.00 42 1016.3
20260502052615 49 260 5.2 8.7 0.00 0.00 0.00 42 1016.3
20260502052056 49 260 5.2 8.7 0.00 0.00 0.00 43 1016.4
20260502051546 49 260 4.3 7.0 0.00 0.00 0.00 43 1016.3
20260502051037 49 260 3.5 7.0 0.00 0.00 0.00 43 1016.4
20260502050526 49 260 2.6 4.3 0.00 0.00 0.00 42 1016.4
20260502050016 49 260 1.7 5.2 0.00 0.00 0.00 42 1016.6
20260502050006 49 260 0.9 5.2 0.00 0.00 0.00 42 1016.6
20260502044954 49 260 0.9 3.5 0.00 0.00 0.00 41 1016.6
20260502044946 50 0 1.7 3.5 0.00 0.00 0.00 41 1016.7
20260502043936 50 259 2.6 4.3 0.00 0.00 0.00 41 1016.7
20260502043929 50 260 2.6 4.3 0.00 0.00 0.00 41 1016.7
20260502042922 50 260 3.5 6.1 0.00 0.00 0.00 41 1016.7
20260502042412 50 260 2.6 5.2 0.00 0.00 0.00 41 1016.7
20260502041902 50 260 2.6 6.1 0.00 0.00 0.00 40 1016.7
20260502041354 50 260 3.5 6.1 0.00 0.00 0.00 41 1016.8
20260502040840 50 260 3.5 7.0 0.00 0.00 0.00 40 1016.7
20260502040337 50 260 3.5 7.0 0.00 0.00 0.00 40 1016.7
20260502035831 50 260 2.6 5.2 0.00 0.00 0.00 40 1016.7
20260502035321 50 0 1.7 4.3 0.00 0.00 0.00 40 1016.7
20260502034810 51 260 0.9 4.3 0.00 0.00 0.00 39 1016.8
20260502034302 51 260 1.7 4.3 0.00 0.00 0.00 38 1016.8
20260502033753 51 260 1.7 4.3 0.00 0.00 0.00 38 1016.9
20260502033244 51 260 2.6 4.3 0.00 0.00 0.00 38 1016.9
20260502032736 51 260 2.6 4.3 0.00 0.00 0.00 38 1016.9
20260502032233 52 260 3.5 4.3 0.00 0.00 0.00 37 1016.9
20260502032216 52 260 2.6 5.2 0.00 0.00 0.00 37 1016.9
20260502031821 52 260 3.5 4.3 0.00 0.00 0.00 37 1016.9
20260502030710 52 260 2.6 5.2 0.00 0.00 0.00 37 1016.8
20260502030202 53 260 2.6 5.2 0.00 0.00 0.00 36 1016.8
20260502025659 53 260 3.5 5.2 0.00 0.00 0.00 35 1016.8
20260502025152 53 260 2.6 5.2 0.00 0.00 0.00 35 1016.8
20260502024649 53 260 2.6 4.3 0.00 0.00 0.00 35 1016.8
20260502024145 54 260 2.6 4.3 0.00 0.00 0.00 34 1016.8
20260502023640 54 259 2.6 4.3 0.00 0.00 0.00 34 1016.8
20260502023137 55 259 2.6 4.3 0.00 0.00 0.00 33 1016.8
20260502022634 55 260 3.5 4.3 0.00 0.00 0.00 32 1016.7
20260502022134 56 260 3.5 5.2 0.00 0.00 0.00 32 1016.7
20260502021626 57 260 3.5 5.2 0.00 0.00 0.00 31 1016.7
20260502021125 57 260 3.5 7.0 0.00 0.00 0.00 30 1016.8
20260502020623 58 260 2.6 5.2 0.00 0.00 0.00 29 1016.8
20260502020113 59 0 2.6 4.3 0.00 0.00 0.00 28 1016.8
20260502015610 60 261 2.6 4.3 0.00 0.00 0.00 27 1016.8
20260502015058 60 261 2.6 6.1 0.00 0.00 0.00 27 1016.8
20260502014554 61 261 2.6 6.1 0.00 0.00 0.00 27 1016.8
20260502014051 61 261 3.5 7.0 0.00 0.00 0.00 26 1016.8
20260502013545 62 261 3.5 7.0 0.00 0.00 0.00 26 1016.7
20260502013039 62 261 4.3 7.0 0.00 0.00 0.00 26 1016.8
20260502012537 63 261 4.3 7.0 0.00 0.00 0.00 26 1016.7
20260502012035 63 261 4.3 7.0 0.00 0.00 0.00 26 1016.8
20260502011536 63 261 5.2 7.0 0.00 0.00 0.00 25 1016.8
20260502011038 64 261 5.2 7.8 0.00 0.00 0.00 24 1016.8
20260502011032 64 261 6.1 8.7 0.00 0.00 0.00 24 1016.9
20260502010015 65 261 4.3 8.7 0.00 0.00 0.00 24 1016.9
20260502005509 65 261 4.3 7.0 0.00 0.00 0.00 24 1016.9
20260502005004 65 261 5.2 7.8 0.00 0.00 0.00 24 1017.0
20260502004459 65 261 5.2 8.7 0.00 0.00 0.00 23 1017.0
20260502004454 66 261 4.3 8.7 0.00 0.00 0.00 23 1017.0
20260502003450 66 261 3.5 5.2 0.00 0.00 0.00 23 1017.0
20260502002950 66 261 2.6 5.2 0.00 0.00 0.00 22 1017.0
20260502002449 66 261 2.6 7.8 0.00 0.00 0.00 22 1017.1
20260502002444 66 261 3.5 7.8 0.00 0.00 0.00 22 1017.1
20260502001435 66 261 4.3 8.7 0.00 0.00 0.00 22 1017.1
20260502000925 66 261 4.3 8.7 0.00 0.00 0.00 23 1017.3
20260502000916 66 261 5.2 9.6 0.00 0.00 0.00 22 1017.1
20260501235904 66 261 6.1 9.6 0.00 0.00 0.00 22 1017.3
20260501235354 67 261 5.2 8.7 0.00 0.00 0.00 22 1017.0
20260501234843 67 261 3.5 7.8 0.00 0.00 0.00 23 1017.1
20260501234826 67 261 3.5 7.8 0.00 0.00 0.00 23 1017.1
20260501234430 67 261 4.3 7.8 0.00 0.00 0.00 22 1017.1
20260501233315 67 261 1.7 5.2 0.00 0.00 0.00 23 1017.1
20260501232803 67 261 2.6 6.1 0.00 0.00 0.00 22 1017.3
20260501232755 67 261 2.6 5.2 0.00 0.00 0.00 24 1017.3
20260501231743 67 261 5.2 10.4 0.00 0.00 0.00 22 1017.4
20260501231735 67 261 7.0 11.3 0.00 0.00 0.00 22 1017.5
20260501231216 67 261 4.3 8.7 0.00 0.00 0.00 22 1017.4
20260501230821 67 261 5.2 11.3 0.00 0.00 0.00 22 1017.3
20260501230331 67 261 2.6 8.7 0.00 0.00 0.00 24 1017.4
20260501230320 67 261 4.3 8.7 0.00 0.00 0.00 23 1017.4
20260501225204 68 261 2.6 7.8 0.00 0.00 0.00 22 1017.4
20260501225145 67 261 4.3 8.7 0.00 0.00 0.00 23 1017.4
20260501223633 66 261 4.3 8.7 0.00 0.00 0.00 23 1017.4
20260501223124 66 261 4.3 8.7 0.00 0.00 0.00 24 1017.5
20260501222613 66 261 2.6 10.4 0.00 0.00 0.00 24 1017.5
20260501222103 65 261 2.6 10.4 0.00 0.00 0.00 24 1017.4
20260501221553 66 261 2.6 5.2 0.00 0.00 0.00 24 1017.4
20260501221043 66 261 3.5 5.2 0.00 0.00 0.00 23 1017.6
20260501221034 66 261 2.6 5.2 0.00 0.00 0.00 23 1017.7
20260501220033 66 261 3.5 8.7 0.00 0.00 0.00 23 1017.7
20260501215523 66 261 5.2 8.7 0.00 0.00 0.00 23 1017.7
20260501215013 66 261 6.1 11.3 0.00 0.00 0.00 23 1017.8
20260501214509 66 261 4.3 11.3 0.00 0.00 0.00 23 1017.8
20260501213959 66 261 3.5 8.7 0.00 0.00 0.00 25 1017.9
20260501213449 66 261 4.3 8.7 0.00 0.00 0.00 24 1018.0
20260501212939 66 261 5.2 9.6 0.00 0.00 0.00 23 1018.0
20260501212930 66 261 5.2 9.6 0.00 0.00 0.00 25 1018.1
20260501211919 66 261 4.3 9.6 0.00 0.00 0.00 25 1018.1
20260501211409 65 261 2.6 8.7 0.00 0.00 0.00 26 1018.1
20260501210859 64 261 2.6 5.2 0.00 0.00 0.00 26 1018.1
20260501210349 64 261 4.3 7.8 0.00 0.00 0.00 26 1018.1
20260501205839 64 261 5.2 7.8 0.00 0.00 0.00 24 1018.2
20260501205830 64 261 5.2 9.6 0.00 0.00 0.00 25 1018.2
20260501204820 64 261 5.2 13.9 0.00 0.00 0.00 24 1018.3
20260501204310 64 261 3.5 10.4 0.00 0.00 0.00 26 1018.3
20260501203800 64 261 3.5 10.4 0.00 0.00 0.00 25 1018.4
20260501203750 64 261 3.5 10.4 0.00 0.00 0.00 27 1018.6
20260501202740 64 261 3.5 8.7 0.00 0.00 0.00 27 1018.6
20260501202229 64 261 4.3 8.7 0.00 0.00 0.00 25 1018.4
20260501201712 64 261 2.6 7.8 0.00 0.00 0.00 25 1018.4
20260501201201 64 261 3.5 8.7 0.00 0.00 0.00 26 1018.4
20260501200651 64 261 3.5 8.7 0.00 0.00 0.00 24 1018.6
20260501200141 64 261 2.6 7.0 0.00 0.00 0.00 26 1018.6
20260501195629 63 261 2.6 7.0 0.00 0.00 0.00 26 1018.7
20260501195120 63 261 4.3 8.7 0.00 0.00 0.00 24 1018.7
20260501194609 63 261 4.3 8.7 0.00 0.00 0.00 26 1018.7
20260501194600 62 261 4.3 7.0 0.00 0.00 0.00 27 1018.7
20260501193549 62 261 4.3 8.7 0.00 0.00 0.00 26 1018.7
20260501193039 62 261 5.2 9.6 0.00 0.00 0.00 25 1018.8
20260501192530 62 261 5.2 11.3 0.00 0.00 0.00 27 1018.7
20260501192020 62 261 5.2 10.4 0.00 0.00 0.00 26 1018.7
20260501191509 63 261 5.2 9.6 0.00 0.00 0.00 26 1018.7
20260501191501 64 261 3.5 8.7 0.00 0.00 0.00 26 1018.7
20260501190449 64 261 3.5 7.8 0.00 0.00 0.00 26 1018.6
20260501185939 64 261 5.2 7.8 0.00 0.00 0.00 26 1018.7
20260501185429 63 261 5.2 8.7 0.00 0.00 0.00 27 1018.7
20260501184920 63 261 4.3 8.7 0.00 0.00 0.00 27 1018.8
20260501184409 62 261 4.3 7.0 0.00 0.00 0.00 29 1018.8
20260501183852 63 261 4.3 8.7 0.00 0.00 0.00 26 1018.9
20260501183343 63 261 5.2 8.7 0.00 0.00 0.00 28 1018.9
20260501182831 63 261 5.2 9.6 0.00 0.00 0.00 28 1018.9
20260501182323 63 261 5.2 9.6 0.00 0.00 0.00 27 1019.0
20260501181811 62 261 6.1 12.2 0.00 0.00 0.00 29 1019.0
20260501181301 62 261 4.3 12.2 0.00 0.00 0.00 28 1018.9
20260501180749 62 261 3.5 7.8 0.00 0.00 0.00 29 1019.1
20260501180240 62 261 2.6 7.8 0.00 0.00 0.00 29 1019.1
20260501175730 62 261 2.6 6.1 0.00 0.00 0.00 29 1019.2
20260501175220 62 261 3.5 8.7 0.00 0.00 0.00 27 1019.2
20260501174710 61 261 4.3 11.3 0.00 0.00 0.00 29 1019.2
20260501174701 61 261 4.3 11.3 0.00 0.00 0.00 29 1019.3
20260501173649 61 261 4.3 9.6 0.00 0.00 0.00 28 1019.3
20260501173140 62 261 4.3 9.6 0.00 0.00 0.00 27 1019.4
20260501172630 62 261 4.3 9.6 0.00 0.00 0.00 30 1019.3
20260501172119 61 261 5.2 9.6 0.00 0.00 0.00 29 1019.3
20260501172110 61 261 4.3 9.6 0.00 0.00 0.00 30 1019.3
20260501171551 60 261 4.3 9.6 0.00 0.00 0.00 32 1019.3
20260501171156 60 261 4.3 7.8 0.00 0.00 0.00 30 1019.3
20260501170040 60 261 3.5 9.6 0.00 0.00 0.00 29 1019.4
20260501170030 60 261 2.6 9.6 0.00 0.00 0.00 31 1019.3
20260501165020 60 261 5.2 9.6 0.00 0.00 0.00 31 1019.3
20260501164509 60 261 5.2 9.6 0.00 0.00 0.00 31 1019.3
20260501163958 59 261 5.2 9.6 0.00 0.00 0.00 33 1019.3
20260501163447 59 261 5.2 8.7 0.00 0.00 0.00 32 1019.3
20260501162938 58 261 5.2 9.6 0.00 0.00 0.00 33 1019.3
20260501162928 58 261 5.2 9.6 0.00 0.00 0.00 32 1019.3
20260501161920 58 261 5.2 9.6 0.00 0.00 0.00 31 1019.2
20260501161411 58 261 4.3 9.6 0.00 0.00 0.00 32 1019.2
20260501160855 57 261 4.3 13.0 0.00 0.00 0.00 31 1019.1
20260501160347 58 261 4.3 13.0 0.00 0.00 0.00 31 1019.1
20260501160342 58 261 4.3 8.7 0.00 0.00 0.00 31 1019.1
20260501155334 58 261 4.3 8.7 0.00 0.00 0.00 32 1019.0
20260501154828 57 261 4.3 8.7 0.00 0.00 0.00 32 1019.0
20260501154317 57 261 3.5 7.0 0.00 0.00 0.00 32 1019.1
20260501154312 57 261 3.5 7.0 0.00 0.00 0.00 30 1019.0
20260501153302 56 261 2.6 6.1 0.00 0.00 0.00 31 1019.1
20260501152754 56 261 1.7 4.3 0.00 0.00 0.00 34 1019.1